Погода в Тихорецке

Погода в Тихорецке : погода сейчас, прогноз погоды и архив. Всё, что Вы хотите узнать о погоде в Тихорецке!

Хотите узнать прогноз погоды в Тихорецке? Тогда Вам сюда: Погода в Тихорецке

Поиск расширенной информации на нашем сайте:

Другие новости

Новости СМИ2

Главная страница сайта

Новости сайта

02.10.2013

Напоминаем, что на нашем новом сайте вы можете получить высокодетализированные прогнозы погоды по пунктам России, СНГ и мира (включающие важные для авиации метеовеличины, такие как направление и скорость ветра, видимость, явления погоды, количество и форма облачности, нижняя и верхняя граница облачности), а также ознакомиться с разнообразными материалами по авиационной метеорологии и подборкой полезных ссылок на эту тему.

Сайт Метеоцентр.Азия посвящён разработке технологий оптимизации авиаметеорологического обслуживания, включая проектирование и перспективное создание нескольких автоматизированных авиаметеорологических систем:
- система выпуска высокодетальных прогностических карт явлений погоды для нижнего воздушного пространства по России и ближнему зарубежью;
- система верификации прогнозов TAF (выпускаемых синоптиками официальных АМСГ РФ и ближнего зарубежья) и AUTOTAF (выпускаемых сайтом Метеоцентр.Азия) - выявление ошибок, онлайн-сопоставление с фактической погодой METAR, автоматическое внесение коррективов в прогнозы при резком отклонении фактической погоды от прогноза, подсчёт оправдываемости прогнозов по элементам и в целом;
- система обработки, анализа и отображения авиаметеорологической информации для применения провайдерами метеорологической информации.

Рекомендуем: Самая детальная информация шпилька м10 на нашем сайте.

Погода в Тихорецке - сегодня

Время (UTC), дата Ветер
(°,м/с) 
Видим.   Явления Облачность Т
(°С)
Тd
(°С)
f(%) Тe
(°С)
Pmin
(гПа)
dP
(гПа)
Po
(мм)
O2
(г/м3)
Тmin Tmax R s Состояние
почвы
09 18.01.17 050 (СВ) 10 км  {ливн. осадки}  10/10 300 м кучево-дожд. 
[Cb cap]
+2.2 -0.6 82 1028.3  0.7  764  305           
12 18.01.17 050 (СВ) 6-10{13}  10 км  {ливн. осадки}  10/4 600 м кучево-дожд., верхняя 
[Cb cap|Ci fib]
+1.7 -1.6 79 -1  1028.1  -0.2  764  306           
15 18.01.17 040 (СВ) 6-10{11}  10 км  {ливн. осадки}  10/10 600 м кучево-дожд. 
[Cb cap]
-0.3 -2.5 85 -4  1029.9  1.8  765  309    +2.3  0.0     
18 18.01.17 070 (В) 6-10{11}  10 км  {ливн. осадки}  10/10 300 м кучево-дожд. 
[Cb cap]
-1.3 -3.7 84 -5  1030.8  0.8  766  310           
21 18.01.17 060 (СВ) 6-10{12}  10 км    10/10 600 м 
[Sc diur, vesp]
-2.5 -5.1 82 -6  1031.1  0.3  766  312           
00 19.01.17 070 (В) 5{12}  10 км    10/10 600 м 
[Sc diur, vesp]
-3.1 -6 80 -7  1031.1  766  313           
03 19.01.17 670 () 10 км    10/10 600 м 
[Sc diur, vesp]
-3.5 -6.4 80 -6  1032.1  767  314  -3.5         
06 19.01.17 070 (В) 5{10}  10 км    10/10 600 м 
[Sc]
-3.9 -6.6 81 -8  1032.4  0.3  767  314  -3.9         
09 19.01.17 040 (СВ) 10 км    10/10 600 м 
[Sc]
-3.3 -6.7 77 -6  1032.6  0.2  767  314           
12 19.01.17 070 (В) 10 км    10/10 600 м 
[Sc]
-3.5 -6.9 77 -7  1032.4  767  314           
15 19.01.17 070 (В) 10 км    10/10 600 м кучево-дожд. 
[Cb cap]
-4.6 -7.6 79 -7  1033.5  0.9  768  315    -3.3       
18 19.01.17 070 (В) 10 км    6/0 средняя 
[Ac As]
-5.6 -8.2 82 -8  1034.1  0.4  768  317           
21 19.01.17 070 (В) 10 км    10/0 средняя 
[Ac und]
-7.3 -9.1 87 -9  1034.2  0.1  768  319           
00 20.01.17 070 (В) 10 км    10/0 средняя 
[Ac As]
-6.8 -8.9 85 -8  1033.7  -0.5  768  318           
03 20.01.17 070 (В) 10 км    10/0 средняя 
[Ac As]
-6.3 -8.5 84 -8  1033.5  -0.2  767  317  -7.3         
06 20.01.17 040 (СВ) 10 км    10/0 средняя 
[Ac As]
-6 -7.8 87 -7  1033.4  -0.1  767  317           
09 20.01.17 200 (Ю) 10 км  {ливн. осадки}  10/0 
[]
-4.8 -7.3 83 -4  1031  -2.7  765  315           
12 20.01.17 290 (З) 10 км  {ливн. осадки}  10/0 средняя 
[As op]
-5.1 -7.2 85 -6  1029.5  -1.2  764  315           
15 20.01.17 240 (ЮЗ) 10 км    10/0 средняя 
[As op]
-5.6 -8 83 -7  1028.6  -0.9  764  315    -4.8       
18 20.01.17 230 (ЮЗ) 10 км    10/0 средняя 
[As op]
-5.9 -8.4 82 -8  1028.3  -0.3  764  315           
21 20.01.17 230 (ЮЗ) 10 км    10/0 средняя 
[Ac As]
-6.1 -7.9 87 -9  1027.9  -0.4  763  315           
00 21.01.17 220 (ЮЗ) 10 км    10/0 средняя 
[Ac As]
-4.7 -6.7 86 -8  1026.8  -1  763  313           
03 21.01.17 230 (ЮЗ) 10 км    10/0 средняя 
[Ac As]
-3.3 -6 82 -6  1025.4  -1.4  761  311  -6.5         
06 21.01.17 230 (ЮЗ) 10 км    10/6 600 м средняя 
[Sc|As op]
-3 -5.6 82 -6  1025.6  0.2  762  311           
09 21.01.17 240 (ЮЗ) 5-11{11}  10 км    10/10 1000 м 
[Sc]
-0.3 -4.5 73 -3  1024.6  -0.8  761  308           
Время (UTC), дата Ветер
(°,м/с) 
Видим.   Явления Облачность Т
(°С)
Тd
(°С)
f(%) Тe
(°С)
Pmin
(гПа)
dP
(гПа)
Po
(мм)
O2
(г/м3)
Тmin Tmax R s Состояние
почвы

Для получения пояснительной информации подведите курсор к названию столбца.

ПОГОДА в Тихорецке - архив

Всё, что Вы хотите узнать о погоде в Тихорецке - удобно и подробно!

Выберите нужную дату (начиная с 1 января 2015* года) и нажмите кнопку "Найти".
Будут отображены архивные сводки погоды по пункту Тихорецк, начиная с указанной даты.


Отображать данные в формате CSV (для использования в таблицах Excel)


Внимание! Наш архив погоды предназначен исключительно для личного некоммерческого использования в познавательных целях. Если Вам необходимы официальные справки о состоянии погоды (для производственных, юридических, коммерческих и т.п. целей), обращайтесь в органы Росгидромета.

*Примечание: данная дата относится к архиву по метеостанциям СССР (Россия, СНГ, Балтия).
Архив по метеостанциям Зарубежной Европы и Азии (кроме Китая) хранится 10 дней, по другим регионам земного шара (Китай, Африка, Америка, Австралия, Океания) - 1 день.

Тихорецк - район местоположения метеостанции


Название, широта, долгота, высота метеостанции:
Тихорецк 45.9°ш. 40.1°д. 78 м над ур. моря [Российская Федерация]

Дополнительная информация

В oтличие oт бoльшинства пoгoдных сайтoв мы публикуем пoдрoбную метеoинфoрмацию в детальнoм прoфессиoнальнoм фoрмате.

Характеристики температуры и влажнoсти вoздуха измеряются на высoте 2 м в тени вдали oт зданий и деревьев.
Скoрoсть ветра измеряется на высoте 10 м (на урoвне рoста челoвека скoрoсть ветра ниже в 1.5-2 раза). Если метеoстанция нахoдится в гoрoде или в лесу, тo скoрoсть ветра занижена на 2-4 м/с пo сравнению с oткрытым местoм. Скoрoсть ветра над акватoриями крупных рек и oзёр, а также на вершинах хoлмoв на 2-5 м/с выше, чем в oбычных услoвиях.
Атмoсфернoе давление в разных тoчках местнoсти мoжет значительнo oтличаться oт давления на метеoстанции, в зависимoсти oт услoвий рельефа (при пoдъёме на 10 м давление пoнижается примернo на 1 мм рт.ст.).